Regional Weather Roundup
Issued by NWS Charleston, WV

Home | Current Version | Previous Version | Graphics & Text | Print | Product List | Glossary On
Versions: 1 2 3 4 5 6 7 8 9 10 11 12 13 14 15 16 17 18 19 20 21 22 23 24 25 26 27 28 29 30 31 32 33 34 35 36 37 38 39 40 41 42 43 44 45 46 47 48 49 50
336
ASUS41 KRLX 041810
RWRRLX
West Virginia Regional Weather Roundup
National Weather Service Charleston WV
100 PM EST SUN DEC 04 2016

Note: "fair" indicates few or no clouds below 12,000 feet with no
significant weather and/or obstructions to visibility.

WVZ003-041900-
Northern Panhandle of West Virginia

CITY           SKY/WX    TMP DP  RH WIND       PRES   REMARKS
WHEELING       MOSUNNY   39  26  59 E9        30.14F
$$

WVZ009-041900-
Northwest West Virginia

CITY           SKY/WX    TMP DP  RH WIND       PRES   REMARKS
PARKERSBURG    MOSUNNY   42  27  55 E7        30.15F
$$

WVZ006-041900-
Western West Virginia

CITY           SKY/WX    TMP DP  RH WIND       PRES   REMARKS
HUNTINGTON     CLOUDY    45  30  55 VRB3      30.08F
$$

WVZ015-041900-
West Central West Virginia

CITY           SKY/WX    TMP DP  RH WIND       PRES   REMARKS
CHARLESTON     CLOUDY    45  31  58 CALM      30.09F
$$

WVZ022-031-041900-
North Central West Virginia

CITY           SKY/WX    TMP DP  RH WIND       PRES   REMARKS
CLARKSBURG     CLOUDY    40  28  62 NE7       30.12F
MORGANTOWN     CLOUDY    42  28  57 NE5       30.15F
$$

WVZ025-035-042-045-041900-
Southern West Virginia

CITY           SKY/WX    TMP DP  RH WIND       PRES   REMARKS
BECKLEY        CLOUDY    37  30  75 SE9       30.08F
LOGAN          PTSUNNY   45  32  61 CALM      30.05F
BLUEFIELD      CLOUDY    36  32  85 VRB6      30.08F
LEWISBURG      DRIZZLE   35  29  77 CALM      30.13F
$$

WVZ047-041900-
Northern Mountains of West Virginia

CITY           SKY/WX    TMP DP  RH WIND       PRES   REMARKS
ELKINS         CLOUDY    39  25  57 SE3       30.10F
$$

WVZ052-041900-
Eastern Panhandle of West Virginia

CITY           SKY/WX    TMP DP  RH WIND       PRES   REMARKS
MARTINSBURG    CLOUDY    42  27  55 CALM      30.22F
PETERSBURG     CLOUDY    42  29  60 SE3       30.20F
$$




USA.gov is the U.S. government's official web portal to all federal, state and local government web resources and services.